Location: Dallon
(49.8210°N, 3.2411°E)
Time: 01:33:47
(UTC+00:00)

Daily predictions for brighter satellites

Satellite Brightness Start Highest point End
(mag) Time Altitude Azimuth Time Altitude Azimuth Time Altitude Azimuth
Cosmos 2297 Rocket 3.1 00:03:39 10° NNW 00:09:06 46° NE 00:14:32 10° SE
Cosmos 1782 2.8 00:06:58 10° N 00:10:36 61° ENE 00:11:51 37° SE
Cosmos 1726 Rocket 4.5 00:08:56 10° N 00:13:14 44° ENE 00:15:53 21° SE
Cosmos 2112 Rocket 4.3 00:09:28 10° NNW 00:14:42 66° ENE 00:18:23 20° SE
SL-08 ROCKET BODY 4.4 00:11:57 28° SSW 00:15:18 82° W 00:21:19 10° N
BREEZE-M DEB (TANK) 3.8 00:12:01 10° WSW 00:16:11 85° S 00:32:50 10° E
Cosmos 1818 4.3 00:12:30 10° NW 00:17:25 36° WSW 00:19:09 29° SSW
Cosmos 2058 2.8 00:18:00 39° S 00:19:19 70° E 00:23:16 10° NNE
Cosmos 44 2.9 00:19:22 33° SW 00:21:15 85° SE 00:25:41 10° NE
Cosmos 2228 4.3 00:21:01 10° NNW 00:24:31 26° W 00:25:54 22° WSW
Cosmos 1680 Rocket 3.4 00:24:54 10° NNW 00:30:11 83° WSW 00:33:13 26° SSE
RESURS DK-1 2.9 00:28:03 10° NNW 00:31:59 53° NE 00:34:58 16° SE
Cosmos 1697 Rocket 4.3 00:32:50 15° SE 00:35:53 23° ESE 00:40:15 10° NE
H-2A R/B 2.4 00:34:14 29° SE 00:35:57 64° ENE 00:39:44 10° N
Cosmos 1656 3.9 00:33:45 28° S 00:36:36 58° ESE 00:42:04 10° NE
Cosmos 923 Rocket 4.2 00:32:29 10° NNW 00:37:33 55° WSW 00:39:56 30° S
SeaSat 1 3.5 00:33:25 10° ESE 00:38:03 44° NE 00:42:43 10° NNW
Cosmos 2227 Rocket 3.5 00:35:12 10° NNW 00:40:33 40° NE 00:45:52 10° ESE
Cosmos 1400 Rocket 3.7 00:38:59 10° NNW 00:42:30 34° W 00:43:29 29° SW
Cosmos 1356 Rocket 4.0 00:41:12 10° N 00:45:04 50° ENE 00:47:29 21° SE
BlueWalker 3 2.8 00:41:53 10° WNW 00:45:28 49° N 00:49:02 10° E
ATLAS 2AS CENTAUR R/B 4.3 00:39:33 10° NW 00:45:47 35° NNE 00:51:53 10° E
Cosmos 1602 3.4 00:46:12 42° SSE 00:47:03 61° E 00:50:15 10° NNE
Cosmos-2242 4.2 00:45:56 10° N 00:49:51 37° ENE 00:53:05 14° SE
Cosmos 1937 Rocket 3.7 00:47:15 25° SW 00:50:14 63° WNW 00:55:21 10° NNE
ISS -3.4 00:50:08 10° WNW 00:53:28 66° N 00:56:49 10° E
H-2A R/B 4.3 00:52:30 10° NE 00:55:08 16° E 00:57:48 10° SE
Cosmos 2315 Rocket 4.1 00:50:54 10° NNW 00:57:13 67° W 01:01:14 24° S
Cosmos 1441 Rocket 3.8 00:58:03 27° SSE 00:59:29 42° E 01:02:49 10° NNE
Landsat 4 2.8 01:03:33 51° S 01:04:09 78° WSW 01:06:59 10° NNW
Cosmos 1933 3.2 01:01:28 10° NNW 01:05:20 72° W 01:07:02 32° S
DNEPR-1 R/B 4.4 01:07:35 10° WNW 01:11:18 30° WSW 01:12:13 27° SW
Meteor 2-3 Rocket 3.8 01:10:11 23° S 01:13:59 78° E 01:19:49 10° NNE
CZ-2C R/B 3.0 01:11:02 24° SSW 01:14:08 51° W 01:19:34 10° NNW
Cosmos 1048 Rocket 4.0 01:16:36 10° NNW 01:22:00 86° WSW 01:26:52 13° SSE
Cosmos 2058 Rocket 3.0 01:18:18 10° NNW 01:22:43 76° W 01:25:27 23° S
Cosmos 1315 Rocket 2.6 01:19:10 10° NNW 01:22:59 81° W 01:25:06 25° S
Cosmos 1655 Rocket 4.3 01:20:19 21° SSW 01:24:36 61° WNW 01:30:58 10° N
IDEFIX/ARIANE 42P 2.8 01:23:23 10° NNE 01:28:34 65° ESE 01:32:15 19° S
Lacrosse 5 rocket 3.2 01:31:10 10° NW 01:34:43 31° NNE 01:38:16 10° ENE
CZ-2C R/B 3.6 01:31:24 10° N 01:36:02 44° WNW 01:39:09 19° SW
SL-08 R/B 4.5 01:33:23 18° S 01:38:04 82° E 01:44:12 10° N
Cosmos 2219 4.3 01:33:35 10° NNW 01:39:06 47° NE 01:44:34 10° SE
Meteor 1-26 Rocket 4.1 01:34:33 10° NNW 01:39:59 81° W 01:44:35 14° S
Cosmos 2360 4.3 01:36:32 20° SW 01:40:37 73° WNW 01:46:21 10° NNE
CZ-4C R/B 3.4 01:37:47 10° W 01:42:12 36° NNW 01:47:46 10° NE
ADEOS II 3.7 01:40:04 10° NE 01:44:34 28° E 01:49:01 10° SSE
Cosmos 1867 4.2 01:40:43 13° WSW 01:45:27 51° NW 01:50:49 10° NE
Cosmos 2263 Rocket 2.8 01:40:51 10° NNW 01:46:29 60° ENE 01:52:01 10° SE
SL-16 R/B 4.3 01:41:55 10° ESE 01:47:19 32° ENE 01:52:46 10° N
Gbstr 26 Del rocket 4.1 01:44:48 10° WNW 01:51:03 78° SSW 01:58:30 10° ESE
Cosmos 1238 Rocket 4.4 01:46:08 10° N 01:51:15 48° ENE 01:56:16 10° SSE
Cosmos 2297 Rocket 2.9 01:47:56 10° NW 01:53:01 35° WSW 01:56:44 17° SSW
CZ-2D R/B 2.9 01:51:00 10° NNE 01:56:05 46° E 02:01:04 10° S
MOZ.5/SAFIR/RUBIN 5/SL-8 3.8 01:56:34 14° S 02:00:24 61° WSW 02:05:02 10° NNW
BREEZE-M DEB (TANK) 2.0 01:59:46 10° W 02:02:11 36° SSW 02:04:17 10° SE
Meteor 2-6 Rocket 4.3 02:00:24 10° NNW 02:06:05 90° W 02:11:55 10° S
Cosmos 1758 Rocket 3.5 02:05:25 16° SSW 02:08:48 79° W 02:13:14 10° N
Cosmos 1602 Rocket 3.6 02:05:12 14° S 02:08:54 74° E 02:13:12 10° NNE
RESURS DK-1 3.9 02:06:21 10° WNW 02:09:05 18° WSW 02:10:16 16° SW
Cosmos 1980 Rocket 2.7 02:05:14 13° S 02:10:05 55° ESE 02:15:33 10° NE
Resurs 1-4 Rocket 2.4 02:05:07 10° NNE 02:10:25 66° ESE 02:15:34 11° S
H-2A R/B 4.3 02:09:35 11° WSW 02:10:44 12° W 02:12:20 10° WNW
Tiangong -0.1 02:10:34 14° S 02:11:06 15° SSE 02:13:00 10° SE
Nadezhda 1 Rocket 4.0 02:06:16 10° NNW 02:12:33 72° W 02:18:41 10° S
ATLAS 5 CENTAUR R/B 4.5 02:09:48 10° NNW 02:12:51 20° NNE 02:16:21 10° ENE
Cosmos 1626 Rocket 3.8 02:12:06 16° SSW 02:15:22 54° WNW 02:19:40 10° N
SeaSat 1 3.1 02:11:35 12° S 02:15:32 34° WSW 02:20:00 10° NW
Cosmos 1745 Rocket 4.1 02:12:26 12° S 02:18:26 85° W 02:24:51 10° N
Cosmos 1697 Rocket 2.9 02:14:32 15° SW 02:19:20 68° WNW 02:25:00 10° NNE
H-2A R/B 4.2 02:15:42 10° NE 02:19:21 20° E 02:22:56 10° SE
Cosmos 614 Rocket 3.9 02:17:34 10° NNW 02:22:36 70° WSW 02:27:36 10° SSE
FENGYUN 3A 3.7 02:17:34 10° NNE 02:22:58 75° WNW 02:27:59 12° SSW
BlueWalker 3 1.7 02:19:40 10° WNW 02:23:20 77° SSW 02:26:58 10° ESE
Cosmos 1346 Rocket 4.4 02:20:42 10° SSE 02:23:52 28° E 02:27:04 10° NNE
Cosmos 2227 Rocket 2.6 02:19:18 10° NW 02:24:38 43° WSW 02:29:56 10° S
MSX 4.2 02:20:42 10° N 02:26:15 52° WNW 02:31:23 12° SW
Cosmos-2242 4.3 02:23:25 10° NW 02:26:44 23° W 02:29:26 13° SW
ISS -3.6 02:26:55 10° WNW 02:30:11 50° SSW 02:33:27 10° SE
H-2A R/B 2.2 02:26:49 10° N 02:30:54 59° WNW 02:34:42 12° SSW
Okean 1 3.5 02:27:18 10° NNW 02:30:54 47° W 02:34:27 10° SSW
Cosmos 1709 Rocket 4.1 02:26:22 10° S 02:32:45 90° SSW 02:39:09 10° N
ATLAS 2AS CENTAUR R/B 2.7 02:30:36 10° NW 02:37:26 87° SW 02:44:08 10° SE
USA 290 2.2 02:34:58 10° NNW 02:38:17 83° WSW 02:41:34 10° SSE
Okean 1-7 Rocket 3.6 02:35:08 10° SSW 02:39:30 71° WNW 02:44:00 10° N
SAR-Lupe-3 4.0 02:36:40 10° SSE 02:39:35 89° WSW 02:42:32 10° NNW
NPP 4.4 02:37:31 10° N 02:42:32 41° WNW 02:47:33 10° SW
ALOS 2.3 02:39:10 10° NNE 02:43:47 82° ESE 02:48:20 10° SSW
Cosmos 1844 Rocket 4.2 02:40:45 10° NNW 02:46:07 42° NE 02:51:24 10° ESE
Cosmos 2221 2.9 02:43:30 10° NNW 02:47:36 45° W 02:51:39 10° SSW
Cosmos 1743 3.0 02:46:36 10° S 02:49:53 56° E 02:53:11 10° NNE
Cosmos 1125 Rocket 4.1 02:46:26 10° SW 02:51:31 48° WNW 02:56:39 10° NNE
Cosmos 192 4.4 02:46:54 10° SSW 02:51:50 77° WNW 02:56:47 10° NNE
Cosmos 2298 Rocket 4.1 02:48:56 10° SSW 02:54:15 84° ESE 02:59:36 10° NNE
Cosmos 2151 3.2 02:52:03 10° SSW 02:56:08 54° WNW 03:00:14 10° N
Cosmos 1953 Rocket 3.7 02:58:29 10° S 03:02:52 79° E 03:07:14 10° NNE
Cosmos 2322 Rocket 4.3 03:00:17 10° SSE 03:04:30 22° E 03:08:43 10° NE
Meteor 1-19 Rocket 4.3 03:01:01 10° NNW 03:06:21 60° W 03:11:47 10° S
Cosmos 2369 3.8 03:01:55 10° SSW 03:07:35 89° ESE 03:13:16 10° NNE
IDEFIX/ARIANE 42P 4.1 03:03:36 10° N 03:07:36 23° WNW 03:11:33 10° WSW
Cosmos 2333 Rocket 4.2 03:04:58 10° SSE 03:09:32 25° ESE 03:14:04 10° NE
Meteor 2-4 Rocket 4.2 03:04:33 10° N 03:09:59 64° ENE 03:15:18 10° SSE
CZ-3 R/B 4.4 02:55:22 10° WSW 03:24:46 34° SSW 03:34:46 10° SE
